Hourly Weather Ruda

Today, 26 July, Monday

Time Temperature Precipitation Wind Pressure Humidity
00:00 +19°C° 0.7 mm 2 mps 742 mmHg 90%
01:00 +19°C° 0.7 mm 2 mps 742 mmHg 93%
02:00 +19°C° 0.4 mm 2 mps 742 mmHg 93%
03:00 +19°C° 0.4 mm 2 mps 742 mmHg 94%
04:00 +19°C° 0.4 mm 2 mps 742 mmHg 95%
05:00 +20°C° 0.1 mm 2 mps 742 mmHg 91%
06:00 +21°C° 0.1 mm 3 mps 742 mmHg 86%
07:00 +22°C° 0.1 mm 3 mps 743 mmHg 82%
08:00 +25°C° 0 mm 3 mps 743 mmHg 74%
09:00 +26°C° 0 mm 3 mps 743 mmHg 65%
10:00 +28°C° 0 mm 3 mps 743 mmHg 56%
11:00 +29°C° 0 mm 3 mps 743 mmHg 52%
12:00 +30°C° 0 mm 3 mps 743 mmHg 47%
13:00 +31°C° 0 mm 3 mps 743 mmHg 43%
14:00 +33°C° 0 mm 3 mps 743 mmHg 42%
15:00 +32°C° 0 mm 2 mps 743 mmHg 41%
16:00 +32°C° 0 mm 2 mps 743 mmHg 39%
17:00 +31°C° 0 mm 2 mps 743 mmHg 45%
18:00 +29°C° 0 mm 2 mps 742 mmHg 50%
19:00 +28°C° 0 mm 1 mps 742 mmHg 56%
20:00 +26°C° 0.8 mm 2 mps 742 mmHg 64%
21:00 +25°C° 0.8 mm 2 mps 742 mmHg 72%
22:00 +23°C° 0.8 mm 2 mps 742 mmHg 80%
23:00 +23°C° 5.2 mm 2 mps 743 mmHg 86%

Tomorrow, 27 July, Tuesday

Time Temperature Precipitation Wind Pressure Humidity
00:00 +21°C° 5.2 mm 2 mps 743 mmHg 91%
01:00 +20°C° 5.2 mm 2 mps 743 mmHg 97%
02:00 +20°C° 0.7 mm 2 mps 743 mmHg 97%
03:00 +20°C° 0.7 mm 2 mps 743 mmHg 97%
04:00 +21°C° 0.7 mm 1 mps 743 mmHg 96%
05:00 +22°C° 0 mm 1 mps 744 mmHg 93%
06:00 +22°C° 0 mm 1 mps 744 mmHg 89%
07:00 +23°C° 0 mm 1 mps 745 mmHg 86%
08:00 +24°C° 0.2 mm 2 mps 745 mmHg 80%
09:00 +25°C° 0.2 mm 2 mps 745 mmHg 73%
10:00 +26°C° 0.2 mm 2 mps 745 mmHg 67%
11:00 +27°C° 0.2 mm 2 mps 745 mmHg 63%
12:00 +28°C° 0.2 mm 1 mps 745 mmHg 59%
13:00 +29°C° 0.2 mm 1 mps 745 mmHg 55%
14:00 +29°C° 0.1 mm 1 mps 745 mmHg 53%
15:00 +29°C° 0.1 mm 1 mps 745 mmHg 52%
16:00 +29°C° 0.1 mm 1 mps 745 mmHg 51%
17:00 +28°C° 0 mm 1 mps 745 mmHg 56%
18:00 +27°C° 0 mm 1 mps 745 mmHg 61%
19:00 +26°C° 0 mm 1 mps 744 mmHg 66%
20:00 +25°C° 0 mm 1 mps 745 mmHg 68%
21:00 +24°C° 0 mm 1 mps 745 mmHg 71%
22:00 +23°C° 0 mm 1 mps 745 mmHg 74%
23:00 +23°C° 0 mm 1 mps 745 mmHg 76%

Day after tomorrow, 28 July, Wednesday

Time Temperature Precipitation Wind Pressure Humidity
00:00 +22°C° 0 mm 1 mps 745 mmHg 78%
01:00 +21°C° 0 mm 2 mps 745 mmHg 80%
02:00 +22°C° 0 mm 1 mps 744 mmHg 81%
03:00 +21°C° 0 mm 1 mps 744 mmHg 83%
04:00 +21°C° 0 mm 1 mps 744 mmHg 84%
05:00 +22°C° 0 mm 1 mps 744 mmHg 79%
06:00 +24°C° 0 mm 1 mps 744 mmHg 74%
07:00 +25°C° 0 mm 1 mps 744 mmHg 68%
08:00 +27°C° 0 mm 1 mps 744 mmHg 62%
09:00 +28°C° 0 mm 1 mps 744 mmHg 55%
10:00 +30°C° 0 mm 1 mps 744 mmHg 48%
11:00 +31°C° 0 mm 1 mps 743 mmHg 45%
12:00 +32°C° 0 mm 1 mps 743 mmHg 42%
13:00 +33°C° 0 mm 1 mps 743 mmHg 39%
14:00 +30°C° 1.7 mm 2 mps 743 mmHg 51%
15:00 +28°C° 1.7 mm 2 mps 743 mmHg 63%
16:00 +25°C° 1.7 mm 3 mps 742 mmHg 76%
17:00 +23°C° 3.7 mm 4 mps 743 mmHg 81%
18:00 +22°C° 3.7 mm 5 mps 744 mmHg 87%
19:00 +21°C° 3.7 mm 5 mps 744 mmHg 93%
20:00 +20°C° 0.4 mm 4 mps 744 mmHg 94%
21:00 +19°C° 0.4 mm 3 mps 745 mmHg 95%
22:00 +18°C° 0.4 mm 2 mps 745 mmHg 95%
23:00 +18°C° 0 mm 2 mps 745 mmHg 95%

29 July, Thursday

Time Temperature Precipitation Wind Pressure Humidity
00:00 +19°C° 0 mm 1 mps 745 mmHg 95%
01:00 +19°C° 0 mm 1 mps 745 mmHg 95%
02:00 +18°C° 0 mm 1 mps 745 mmHg 95%
03:00 +18°C° 0 mm 1 mps 745 mmHg 95%
04:00 +18°C° 0 mm 1 mps 745 mmHg 95%
05:00 +19°C° 0 mm 1 mps 746 mmHg 91%
06:00 +19°C° 0 mm 2 mps 746 mmHg 87%
07:00 +20°C° 0 mm 2 mps 746 mmHg 83%
08:00 +23°C° 0 mm 2 mps 746 mmHg 74%
09:00 +25°C° 0 mm 2 mps 746 mmHg 65%
10:00 +26°C° 0 mm 2 mps 746 mmHg 56%
11:00 +27°C° 0 mm 2 mps 746 mmHg 52%
12:00 +29°C° 0 mm 2 mps 745 mmHg 47%
13:00 +30°C° 0 mm 2 mps 745 mmHg 43%
14:00 +30°C° 0 mm 2 mps 745 mmHg 43%
15:00 +30°C° 0 mm 3 mps 745 mmHg 43%
16:00 +30°C° 0 mm 3 mps 744 mmHg 42%
17:00 +29°C° 0 mm 2 mps 744 mmHg 49%
18:00 +28°C° 0 mm 1 mps 744 mmHg 55%
19:00 +26°C° 0 mm 1 mps 744 mmHg 61%
20:00 +25°C° 0 mm 1 mps 743 mmHg 63%
21:00 +24°C° 0 mm 1 mps 743 mmHg 65%
22:00 +23°C° 0 mm 1 mps 743 mmHg 66%
23:00 +23°C° 0 mm 1 mps 743 mmHg 69%

30 July, Friday

Time Temperature Precipitation Wind Pressure Humidity
00:00 +22°C° 0 mm 1 mps 742 mmHg 71%
01:00 +22°C° 0 mm 1 mps 742 mmHg 73%
02:00 +21°C° 0.1 mm 1 mps 742 mmHg 75%
03:00 +21°C° 0.1 mm 1 mps 741 mmHg 76%
04:00 +20°C° 0.1 mm 2 mps 741 mmHg 78%
05:00 +21°C° 0 mm 2 mps 741 mmHg 75%
06:00 +23°C° 0 mm 2 mps 741 mmHg 72%
07:00 +24°C° 0 mm 3 mps 741 mmHg 68%
08:00 +26°C° 0 mm 3 mps 741 mmHg 62%
09:00 +28°C° 0 mm 3 mps 741 mmHg 55%
10:00 +29°C° 0 mm 3 mps 740 mmHg 49%
11:00 +30°C° 0 mm 4 mps 740 mmHg 48%
12:00 +30°C° 0 mm 4 mps 740 mmHg 47%
13:00 +32°C° 0 mm 5 mps 740 mmHg 47%
14:00 +29°C° 0 mm 5 mps 740 mmHg 51%
15:00 +28°C° 0 mm 5 mps 740 mmHg 56%
16:00 +27°C° 0 mm 5 mps 740 mmHg 61%
17:00 +26°C° 0 mm 4 mps 740 mmHg 64%
18:00 +25°C° 0 mm 3 mps 740 mmHg 66%
19:00 +24°C° 0 mm 2 mps 741 mmHg 69%
20:00 +23°C° 0.1 mm 2 mps 741 mmHg 72%
21:00 +21°C° 0.1 mm 2 mps 741 mmHg 74%
22:00 +20°C° 0.1 mm 2 mps 741 mmHg 77%
23:00 +19°C° 0 mm 2 mps 741 mmHg 75%

31 July, Saturday

Time Temperature Precipitation Wind Pressure Humidity
00:00 +19°C° 0 mm 2 mps 742 mmHg 73%
01:00 +19°C° 0 mm 1 mps 742 mmHg 70%
02:00 +18°C° 0 mm 1 mps 742 mmHg 71%
03:00 +18°C° 0 mm 1 mps 742 mmHg 71%
04:00 +16°C° 0 mm 1 mps 742 mmHg 72%
05:00 +19°C° 0 mm 1 mps 742 mmHg 67%
06:00 +19°C° 0 mm 2 mps 742 mmHg 63%
07:00 +20°C° 0 mm 2 mps 742 mmHg 59%
08:00 +22°C° 0 mm 3 mps 742 mmHg 54%
09:00 +23°C° 0 mm 4 mps 742 mmHg 49%
10:00 +25°C° 0 mm 5 mps 742 mmHg 44%
11:00 +23°C° 0.1 mm 5 mps 742 mmHg 50%
12:00 +22°C° 0.1 mm 5 mps 742 mmHg 55%
13:00 +21°C° 0.1 mm 5 mps 743 mmHg 61%
14:00 +21°C° 0 mm 6 mps 743 mmHg 59%
15:00 +21°C° 0 mm 6 mps 743 mmHg 56%
16:00 +22°C° 0 mm 6 mps 743 mmHg 54%
17:00 +21°C° 0 mm 5 mps 743 mmHg 58%
18:00 +20°C° 0 mm 5 mps 743 mmHg 62%
19:00 +19°C° 0 mm 5 mps 743 mmHg 67%
20:00 +17°C° 0 mm 5 mps 743 mmHg 70%
21:00 +17°C° 0 mm 4 mps 743 mmHg 72%
22:00 +17°C° 0 mm 4 mps 743 mmHg 75%
23:00 +15°C° 0 mm 4 mps 743 mmHg 78%
Show more

We Need Your Consent

Meteoprog and our Service Providers may store and access personal data such as cookies, device identifiers or other similar technologies on your device and process such data to personalise content and ads, as well as provide social media features and to analyse the traffic.

  • Store and/or access information on your device

    Cookies, device identifiers or other information can be stored or accessed on your device for the purposes indicated above.

  • Personalised ads and content, ad and content measurement, audience insights, and products development

    Ads and content can be personalised based on a profile. More data can be added to better personalise ads and content. Ad and content performance can be measured. Insights about the audience who saw the ads and content can be derived. Such data can be used to develop or improve user’s experience, systems and software.

By clicking ‘I Agree’ you will allow the use of indicated cookies, device identifiers, web beacons or other similar technologies. Your settings can be changed in the browser on your device.

For certain purposes, legitimate interests may be relied on, rather than consent. You can read more about this in our Privacy and Cookie Policy.